Regional Weather Roundup
Issued by NWS Binghamton, NY

Home | Current Version | Previous Version | Text Only | Print | Product List | Glossary On
Versions: 1 2 3 4 5 6 7 8 9 10 11 12 13 14 15 16 17 18 19 20 21 22 23 24 25 26 27 28 29 30 31 32 33 34 35 36 37 38 39 40 41 42 43 44 45 46 47 48 49 50
000
ASUS41 KBGM 070210
RWRBGM
RWRBGM
BINGHAMTON REGIONAL WEATHER ROUNDUP
NATIONAL WEATHER SERVICE BINGHAMTON NY
900 PM EST FRI MAR 06 2015

Note: "fair" indicates few or no clouds below 12,000 feet with no
significant weather and/or obstructions to visibility.

* = Station(s) that does not report precipitation, such as rain,
snow, etc, also no thunder or fog.

!NYZ009-015>018-022>025-036-037-044>046-055>057-062-070300
...CENTRAL NEW YORK...

CITY           SKY/WX    TMP DP  RH WIND       PRES   REMARKS
BINGHAMTON     MOCLDY    16   0  49 S7        30.20F WCI   6
CORTLAND       FAIR      16   5  62 CALM      30.24S
DANSVILLE      PTCLDY    16   5  62 S3        30.25S
ELMIRA         PTCLDY    15   3  59 SW5       30.24F WCI   8
ITHACA         PTCLDY    19  -1  41 S7        30.24F WCI  10
MONTICELLO     PTCLDY    16  -2  45 CALM      30.25S
NORWICH        CLEAR     12   0  57 CALM      30.26S
ONEONTA        CLEAR     12  -6  44 CALM      30.18F
PENN YAN       PTCLDY    16   3  56 SW3       30.23F
ROME           MOCLDY    10   2  69 CALM      30.30F
SIDNEY         CLEAR     14   5  67 CALM      30.26S
SYRACUSE       CLOUDY    16   3  56 E6        30.26F WCI   7
$$

!PAZ038>040-043-044-047-048-072-070300
...NORTHEAST PENNSYLVANIA...

CITY           SKY/WX    TMP DP  RH WIND       PRES   REMARKS
HAZLETON       PTCLDY    16   1  53 MISG      30.29S
SCRANTON       PTCLDY    18  -2  41 SW6       30.30S WCI  10
TOWANDA*       CLEAR     19   1  45 SW7       30.30S WCI  10
$$
&&
KEY
WCI = WIND CHILL INDEX
VSB = VISIBILITY
HX  = HEAT INDEX
$$



USA.gov is the U.S. government's official web portal to all federal, state and local government web resources and services.